KANOPUS-V 4

导读

KANOPUS-V 4是独联体(CIS)的一颗地球观测卫星,于2018年2月1日在东方航天发射场,由联盟-2.1A运载火箭发射升空,与同系列的KANOPUS-V 3共同组网。该卫星属于KANOPUS-V系列,具备红外观测能力,主要承担地球遥感监测任务,可服务于环境观测、灾害预警、资源勘探等领域,是独联体对地观测体系的重要组成部分。

基本信息
目录编号:
43181
目录名称:
KANOPUS-V 4
国际标识:
2018-014B
轨道中心:
EARTH
卫星名称:
KANOPUS-V 4
卫星全名:
--
卫星状态:
在轨 (已飞行3138 天)
发射日期:
2018-02-01 UTC
国别 :
俄罗斯(独联体) (CIS)
星等 :
--
轨道信息
数据来源 国际轨道数据
星历时间: 2026-09-05T21:03:11+0800
5小时前
查看轨道信息
半长轴: 6877km
偏心率: 0.0001905
轨道倾角: 97.349°
近地点辐角 85.309°
升交点赤经 152.540°
平近点角 274.836°
近地点: 497.552km
远地点: 500.174km
周期: 94.593分钟
每日圈数: 15.223141
详细信息
使用方式:
暂无
2D轨道图
3D轨道图
轨道高度分析图
轨道倾角分析图
轨道综合分析图
查看轨道综合分析图
交会数据列表
事件ID 空间交会对象 最接近时刻(TCA) 交会距离 交会风险概率(CRP) 交会风险指数(CRI) 操作
CDM_260906-170904-318106-454821
2026-09-06T
17:09:51+0000
1.018 km
极远距离
2.525254E-5 中风险 0.63
CDM_260907-172004-318105-080521
2026-09-07T
17:20:45+0000
1.357 km
极远距离
7.969288E-6 低风险 0.53
CDM_260907-180404-318106-399121
OBJECT K (63991)
2026-09-07T
18:04:58+0000
1.526 km
极远距离
6.394284E-6 低风险 0.51
CDM_260906-131304-318106-454821
2026-09-06T
13:13:11+0000
1.806 km
极远距离
3.733489E-6 低风险 0.46
CDM_260905-025804-318106-399222
OBJECT L (63992)
2026-09-05T
02:58:43+0000
2.035 km
极远距离
2.758042E-6 低风险 0.44
CDM_260907-193904-318106-399121
OBJECT K (63991)
2026-09-07T
19:39:39+0000
2.266 km
极远距离
2.148399E-6 低风险 0.42
CDM_260906-023704-318106-676621
2026-09-06T
02:37:42+0000
2.328 km
极远距离
2.030537E-6 低风险 0.41
CDM_260905-043304-318106-399222
OBJECT L (63992)
2026-09-05T
04:33:24+0000
2.379 km
极远距离
1.943544E-6 低风险 0.41
CDM_260907-070004-318106-747421
ALSAT 3A (67474)
2026-09-07T
07:00:51+0000
2.627 km
极远距离
1.62741E-6 低风险 0.39
CDM_260906-085604-318106-673021
2026-09-06T
08:56:23+0000
2.740 km
极远距离
1.522946E-6 低风险 0.39